Location: Cieszkowy
(50.3290°N, 20.5336°E)
Time: 23:19:27
(UTC+00:00)

GEOS 3 Rocket - Pass Details

Date: 15 June 2024
Orbit: 785 x 831 km, 115.0° (Epoch: 18 July)

Event Time Altitude Azimuth Distance (km) Brightness Sun altitude
Rises 00:09:22 0° 40° (NE) 3,339 8.3 -13.6°
Reaches altitude 10° 00:11:44 10° 36° (NE) 2,398 7.4 -13.5°
Maximum altitude 00:16:46 53° 321° (NW) 979 4.2 -13.2°
Drops below altitude 10° 00:21:43 10° 246° (WSW) 2,359 5.6 -12.9°
Enters shadow 00:21:52 - 246° (WSW) 2,415 5.6 -12.9°
